GW6331 Weather Reports


time (UTC)temp
C
wind
direction
speed
KPH
gust
KPH
rain 1hr
cm
rain 24hr
cm
rain mn
cm
humidity
%
barometer
mb
20260505004455 22 22 9.7 16.1 0.00 1.40 1.40 53 1005.1
20260505003954 22 24 11.3 16.1 0.00 1.40 1.40 52 1005.1
20260505003455 22 29 11.3 14.5 0.00 1.40 1.40 53 1005.1
20260505002954 22 4 14.5 14.5 0.00 1.40 1.40 54 1005.1
20260505002454 22 36 11.3 14.5 0.00 1.40 1.40 54 1005.1
20260505001954 22 15 8.0 17.7 0.00 1.40 1.40 54 1005.1
20260505001006 23 34 12.9 22.5 0.00 1.40 1.40 50 1005.0
20260505000000 23 32 14.5 22.5 0.00 1.40 1.40 51 1005.2
20260504235500 23 20 12.9 27.4 0.00 1.40 1.40 50 1005.1
20260504235000 23 55 12.9 29.0 0.00 1.40 1.40 52 1005.3
20260504234500 23 41 11.3 29.0 0.00 1.40 1.40 51 1005.4
20260504234000 23 33 16.1 32.2 0.00 1.40 1.40 50 1005.4
20260504233500 24 10 17.7 32.2 0.00 1.40 1.40 49 1005.6
20260504233001 24 28 19.3 33.8 0.00 1.40 1.40 48 1005.6
20260504232500 24 48 14.5 33.8 0.00 1.40 1.40 47 1005.7
20260504232000 24 32 33.8 33.8 0.00 1.40 1.40 46 1005.6
20260504231500 24 13 16.1 30.6 0.00 1.40 1.40 48 1005.9
20260504231000 25 35 19.3 30.6 0.00 1.40 1.40 47 1006.0
20260504230500 25 51 20.9 30.6 0.00 1.40 1.40 43 1006.0
20260504230000 25 54 19.3 27.4 0.00 1.40 1.40 48 1006.0
20260504225500 25 23 19.3 32.2 0.00 1.40 1.40 48 1006.1
20260504225000 25 25 19.3 32.2 0.00 1.40 1.40 46 1006.2
20260504224500 25 20 27.4 30.6 0.00 1.40 1.40 47 1006.1
20260504224000 25 46 17.7 25.7 0.00 1.40 1.40 45 1006.1
20260504223501 25 23 16.1 33.8 0.00 1.40 1.40 45 1006.3
20260504222954 25 51 19.3 33.8 0.00 1.40 1.40 45 1006.3
20260504222454 25 5 19.3 32.2 0.00 1.40 1.40 45 1006.2
20260504221954 25 13 20.9 32.2 0.00 1.40 1.40 44 1006.3
20260504221455 25 33 20.9 32.2 0.00 1.40 1.40 46 1006.4
20260504220955 25 39 25.7 30.6 0.00 1.40 1.40 46 1006.4
20260504220454 25 22 19.3 27.4 0.00 1.40 1.40 49 1006.5
20260504215954 25 47 12.9 30.6 0.00 1.40 1.40 50 1006.5
20260504215454 25 59 17.7 30.6 0.00 1.40 1.40 43 1006.5
20260504214954 25 20 14.5 35.4 0.00 1.40 1.40 48 1006.6
20260504214454 25 16 17.7 35.4 0.00 1.40 1.40 45 1006.6
20260504213954 25 28 17.7 32.2 0.00 1.40 1.40 48 1006.8
20260504213454 25 32 29.0 32.2 0.00 1.40 1.40 50 1006.7
20260504212954 25 52 16.1 30.6 0.00 1.40 1.40 45 1006.8
20260504212454 25 50 19.3 38.6 0.00 1.40 1.40 45 1006.8
20260504211954 25 59 22.5 38.6 0.00 1.40 1.40 39 1006.9
20260504211454 25 54 25.7 32.2 0.00 1.40 1.40 46 1006.9
20260504210954 25 45 30.6 32.2 0.00 1.40 1.40 43 1007.0
20260504210455 25 27 19.3 30.6 0.00 1.40 1.40 46 1007.1
20260504205954 25 32 19.3 32.2 0.00 1.40 1.40 45 1007.3
20260504205454 25 51 19.3 33.8 0.00 1.40 1.40 44 1007.2
20260504204954 25 25 16.1 33.8 0.00 1.40 1.40 45 1007.3
20260504204455 25 11 17.7 30.6 0.00 1.40 1.40 46 1007.4
20260504203954 25 36 20.9 33.8 0.00 1.40 1.40 43 1007.5
20260504203454 25 21 12.9 33.8 0.00 1.40 1.40 46 1007.6
20260504202954 25 23 17.7 33.8 0.00 1.40 1.40 43 1007.7
20260504202454 25 35 24.1 33.8 0.00 1.40 1.40 46 1007.9
20260504201954 26 70 24.1 32.2 0.00 1.40 1.40 40 1007.9
20260504201454 25 57 20.9 33.8 0.00 1.40 1.40 42 1008.0
20260504200954 25 47 25.7 33.8 0.00 1.40 1.40 43 1008.0
20260504200454 25 42 33.8 40.2 0.00 1.40 1.40 48 1008.1
20260504195954 25 59 19.3 41.8 0.00 1.40 1.40 42 1008.1
20260504195454 25 39 17.7 41.8 0.00 1.40 1.40 46 1008.1
20260504194954 25 16 25.7 37.0 0.00 1.40 1.40 46 1008.3
20260504194455 25 42 20.9 37.0 0.00 1.40 1.40 48 1008.3
20260504193954 25 33 16.1 40.2 0.00 1.40 1.40 42 1008.4
20260504193454 25 35 24.1 40.2 0.00 1.40 1.40 44 1008.5
20260504192954 25 21 27.4 32.2 0.00 1.40 1.40 45 1008.6
20260504192454 25 73 14.5 37.0 0.00 1.40 1.40 41 1008.6
20260504191954 25 45 20.9 37.0 0.00 1.40 1.40 43 1008.7
20260504191454 25 21 17.7 29.0 0.00 1.40 1.40 44 1008.8
20260504190954 25 38 16.1 35.4 0.00 1.40 1.40 46 1008.9
20260504190454 25 57 17.7 35.4 0.00 1.40 1.40 42 1008.9
20260504185955 25 55 17.7 32.2 0.00 1.40 1.40 44 1008.9
20260504185454 25 49 19.3 38.6 0.00 1.40 1.40 48 1008.9
20260504184954 25 46 19.3 38.6 0.00 1.40 1.40 49 1009.1
20260504184006 25 47 20.9 32.2 0.00 1.40 1.40 41 1009.2
20260504183500 25 80 11.3 33.8 0.00 1.40 1.40 45 1009.2
20260504183000 25 41 27.4 33.8 0.00 1.40 1.40 46 1009.3
20260504182500 24 42 20.9 33.8 1.37 1.40 1.40 46 1009.4
20260504182000 24 27 27.4 30.6 1.37 1.40 1.40 50 1009.3
20260504181500 25 36 24.1 32.2 1.40 1.40 1.40 52 1009.5
20260504181000 25 44 22.5 37.0 1.40 1.40 1.40 44 1009.5
20260504180500 24 43 29.0 37.0 1.40 1.40 1.40 47 1009.5
20260504180000 25 47 14.5 29.0 1.40 0.00 1.40 43 1009.6
20260504175501 25 63 19.3 38.6 1.40 0.00 1.40 42 1009.6
20260504174954 24 59 20.9 38.6 1.40 0.00 1.40 41 1009.7
20260504174455 25 39 19.3 37.0 1.40 0.00 1.40 44 1009.9
20260504173507 24 55 25.7 32.2 1.40 0.00 1.40 44 1010.0
20260504173006 25 93 14.5 38.6 1.37 0.00 1.40 47 1010.1
20260504172500 23 236 22.5 38.6 0.00 0.00 0.05 51 1010.0
20260504172000 23 235 27.4 29.0 0.00 0.00 0.00 49 1010.1
20260504171500 24 311 20.9 38.6 0.00 0.00 0.00 48 1010.1
20260504171000 23 255 14.5 38.6 0.00 0.00 0.00 53 1010.3
20260504170500 23 259 20.9 38.6 0.00 0.00 0.00 47 1010.3
20260504151000 21 236 20.9 25.7 0.00 0.00 0.00 60 1010.7
20260504150500 21 253 11.3 20.9 0.00 0.00 0.00 63 1010.7
20260504141000 19 260 12.9 20.9 0.00 0.00 0.00 63 1010.8
20260504140500 19 238 12.9 20.9 0.00 0.00 0.00 65 1010.9
20260504130501 17 264 12.9 20.9 0.00 0.00 0.00 70 1010.4
20260504110500 14 221 9.7 12.9 0.00 0.00 0.00 78 1009.4
20260504100500 15 231 8.0 11.3 0.00 0.00 0.00 76 1009.4
20260504082000 16 237 8.0 12.9 0.00 0.00 0.00 72 1009.8
20260504081500 16 252 6.4 11.3 0.00 0.00 0.00 73 1009.8
20260504081000 16 238 6.4 11.3 0.00 0.00 0.00 73 1009.8
20260504080500 16 238 6.4 9.7 0.00 0.00 0.00 74 1009.8
20260504050500 16 252 6.4 9.7 0.00 0.00 0.00 75 1010.8
20260504050000 16 261 6.4 11.3 0.00 0.00 0.00 74 1010.8
20260504045500 17 257 4.8 11.3 0.00 0.00 0.00 72 1010.8
20260504045000 17 234 6.4 12.9 0.00 0.00 0.00 68 1010.8
20260504044500 17 253 3.2 12.9 0.00 0.00 0.00 68 1010.9
20260504044000 17 255 6.4 14.5 0.00 0.00 0.00 68 1011.0
20260504043500 18 224 8.0 14.5 0.00 0.00 0.00 66 1011.0
20260504043000 17 223 8.0 12.9 0.00 0.00 0.00 67 1011.0
20260504042500 17 242 6.4 12.9 0.00 0.00 0.00 68 1011.1
20260504042000 17 237 8.0 11.3 0.00 0.00 0.00 67 1011.1
20260504041500 17 228 9.7 12.9 0.00 0.00 0.00 70 1011.1
20260504041000 18 239 4.8 12.9 0.00 0.00 0.00 67 1011.2
20260504040500 18 225 8.0 11.3 0.00 0.00 0.00 64 1011.2
20260504040000 18 229 11.3 11.3 0.00 0.00 0.00 65 1011.2
20260504035500 17 246 6.4 9.7 0.00 0.00 0.00 67 1011.2
20260504035000 17 236 6.4 8.0 0.00 0.00 0.00 67 1011.2
20260504034500 17 238 4.8 6.4 0.00 0.00 0.00 71 1011.2
20260504034000 18 229 3.2 6.4 0.00 0.00 0.00 67 1011.2
20260504033500 18 211 3.2 8.0 0.00 0.00 0.00 67 1011.2
20260504033000 18 219 6.4 8.0 0.00 0.00 0.00 68 1011.2
20260504032500 17 238 6.4 8.0 0.00 0.00 0.00 72 1011.2
20260504032000 17 249 4.8 6.4 0.00 0.00 0.00 73 1011.2
20260504031500 18 262 3.2 6.4 0.00 0.00 0.00 71 1011.2
20260504031000 18 233 3.2 6.4 0.00 0.00 0.00 69 1011.2
20260504030500 17 237 3.2 4.8 0.00 0.00 0.00 72 1011.2
20260504030000 18 237 1.6 4.8 0.00 0.00 0.00 69 1011.2
20260504025500 18 210 3.2 4.8 0.00 0.00 0.00 65 1011.1
20260504025000 18 191 1.6 4.8 0.00 0.00 0.00 67 1011.1
20260504024500 18 192 1.6 3.2 0.00 0.00 0.00 69 1011.1
20260504024000 18 175 3.2 3.2 0.00 0.00 0.00 69 1011.2
20260504023500 18 199 0.0 3.2 0.00 0.00 0.00 71 1011.1
20260504023000 18 242 3.2 3.2 0.00 0.00 0.00 73 1011.2
20260504022500 18 249 3.2 3.2 0.00 0.00 0.00 72 1011.1
20260504022000 18 285 0.0 1.6 0.00 0.00 0.00 72 1011.1
20260504021500 18 236 1.6 1.6 0.00 0.00 0.00 71 1011.1
20260504021000 17 260 1.6 3.2 0.00 0.00 0.00 73 1011.1
20260504020500 18 256 1.6 3.2 0.00 0.00 0.00 74 1011.1
20260504020000 18 164 1.6 3.2 0.00 0.00 0.00 71 1011.1
20260504015500 18 185 1.6 1.6 0.00 0.00 0.00 70 1011.1
20260504015000 18 221 1.6 1.6 0.00 0.00 0.00 68 1011.1
20260504014500 18 243 1.6 1.6 0.00 0.00 0.00 70 1011.0
20260504014000 18 219 0.0 3.2 0.00 0.00 0.00 70 1011.1
20260504013500 18 218 1.6 3.2 0.00 0.00 0.00 68 1011.0
20260504013000 18 213 1.6 3.2 0.00 0.00 0.00 74 1011.0
20260504012500 19 245 3.2 3.2 0.00 0.00 0.00 72 1011.0
20260504012000 19 253 1.6 3.2 0.00 0.00 0.00 68 1011.0
20260504011500 19 187 3.2 4.8 0.00 0.00 0.00 67 1011.0
20260504011000 20 227 3.2 4.8 0.00 0.00 0.00 73 1011.1
20260504010500 20 217 3.2 4.8 0.00 0.00 0.00 74 1011.1
20260504010000 20 222 3.2 4.8 0.00 0.00 0.00 71 1011.1
20260504005501 21 238 4.8 4.8 0.00 0.00 0.00 59 1011.1
20260504005000 21 196 3.2 4.8 0.00 0.00 0.00 59 1011.1